When you browse on this site, cookies collect data to enhance your experience and personalize the content and advertising you see.
Visit our Privacy Policy to learn more. By continuing to use the site, you agree to this use of cookies and data.

Hourly Weather Charlotte

Today, 4 July, Saturday

Time Temperature Precipitation Wind Pressure Humidity
00:00 +26°C° 0 mm 1 mps 741 mmHg 62%
01:00 +25°C° 0 mm 1 mps 741 mmHg 64%
02:00 +25°C° 0 mm 1 mps 741 mmHg 66%
03:00 +23°C° 0 mm 0 mps 741 mmHg 68%
04:00 +22°C° 0 mm 0 mps 741 mmHg 70%
05:00 +23°C° 0 mm 0 mps 741 mmHg 69%
06:00 +24°C° 0 mm 0 mps 741 mmHg 69%
07:00 +25°C° 0 mm 0 mps 741 mmHg 68%
08:00 +27°C° 0 mm 0 mps 741 mmHg 62%
09:00 +30°C° 0 mm 0 mps 742 mmHg 55%
10:00 +34°C° 0 mm 1 mps 742 mmHg 48%
11:00 +35°C° 0 mm 1 mps 741 mmHg 43%
12:00 +36°C° 0 mm 1 mps 741 mmHg 38%
13:00 +37°C° 0 mm 1 mps 741 mmHg 33%
14:00 +36°C° 0 mm 1 mps 741 mmHg 36%
15:00 +35°C° 0 mm 1 mps 740 mmHg 39%
16:00 +34°C° 0 mm 1 mps 740 mmHg 42%
17:00 +33°C° 0 mm 1 mps 740 mmHg 44%
18:00 +32°C° 0 mm 1 mps 740 mmHg 47%
19:00 +31°C° 0 mm 1 mps 740 mmHg 49%
20:00 +30°C° 0 mm 1 mps 740 mmHg 52%
21:00 +29°C° 0 mm 1 mps 741 mmHg 54%
22:00 +28°C° 0 mm 1 mps 741 mmHg 56%
23:00 +28°C° 0 mm 2 mps 741 mmHg 59%

Tomorrow, 5 July, Sunday

Time Temperature Precipitation Wind Pressure Humidity
00:00 +27°C° 0 mm 2 mps 741 mmHg 61%
01:00 +26°C° 0 mm 2 mps 741 mmHg 64%
02:00 +26°C° 0 mm 2 mps 741 mmHg 67%
03:00 +25°C° 0 mm 1 mps 741 mmHg 69%
04:00 +25°C° 0 mm 1 mps 741 mmHg 71%
05:00 +25°C° 0 mm 1 mps 741 mmHg 71%
06:00 +26°C° 0 mm 1 mps 742 mmHg 70%
07:00 +26°C° 0 mm 1 mps 742 mmHg 69%
08:00 +27°C° 0 mm 0 mps 742 mmHg 62%
09:00 +29°C° 0 mm 0 mps 742 mmHg 54%
10:00 +32°C° 0 mm 0 mps 743 mmHg 47%
11:00 +35°C° 0 mm 1 mps 742 mmHg 44%
12:00 +35°C° 0 mm 1 mps 742 mmHg 40%
13:00 +36°C° 0 mm 1 mps 742 mmHg 37%
14:00 +36°C° 0 mm 2 mps 742 mmHg 39%
15:00 +36°C° 0 mm 2 mps 741 mmHg 41%
16:00 +35°C° 0 mm 2 mps 741 mmHg 44%
17:00 +34°C° 0 mm 2 mps 741 mmHg 48%
18:00 +32°C° 0 mm 1 mps 741 mmHg 53%
19:00 +30°C° 0 mm 1 mps 742 mmHg 57%
20:00 +29°C° 0 mm 1 mps 742 mmHg 61%
21:00 +28°C° 0 mm 2 mps 742 mmHg 64%
22:00 +27°C° 0 mm 2 mps 743 mmHg 67%
23:00 +27°C° 0.1 mm 2 mps 743 mmHg 70%

Day after tomorrow, 6 July, Monday

Time Temperature Precipitation Wind Pressure Humidity
00:00 +26°C° 0.1 mm 1 mps 743 mmHg 72%
01:00 +25°C° 0.1 mm 1 mps 743 mmHg 74%
02:00 +25°C° 0 mm 1 mps 743 mmHg 75%
03:00 +24°C° 0 mm 1 mps 743 mmHg 76%
04:00 +22°C° 0 mm 0 mps 743 mmHg 77%
05:00 +22°C° 0 mm 0 mps 743 mmHg 76%
06:00 +23°C° 0 mm 0 mps 744 mmHg 74%
07:00 +24°C° 0 mm 0 mps 744 mmHg 72%
08:00 +27°C° 0 mm 1 mps 744 mmHg 65%
09:00 +29°C° 0 mm 1 mps 744 mmHg 58%
10:00 +31°C° 0 mm 2 mps 744 mmHg 51%
11:00 +32°C° 0 mm 2 mps 744 mmHg 47%
12:00 +34°C° 0 mm 2 mps 744 mmHg 44%
13:00 +35°C° 0 mm 3 mps 744 mmHg 40%
14:00 +35°C° 0 mm 3 mps 744 mmHg 40%
15:00 +35°C° 0 mm 3 mps 743 mmHg 39%
16:00 +35°C° 0 mm 3 mps 743 mmHg 39%
17:00 +34°C° 0 mm 3 mps 743 mmHg 46%
18:00 +31°C° 0 mm 3 mps 743 mmHg 53%
19:00 +30°C° 0 mm 3 mps 743 mmHg 60%
20:00 +29°C° 0.1 mm 2 mps 743 mmHg 66%
21:00 +28°C° 0.1 mm 2 mps 744 mmHg 72%
22:00 +27°C° 0.1 mm 2 mps 744 mmHg 77%
23:00 +26°C° 0.3 mm 2 mps 744 mmHg 80%

7 July, Tuesday

Time Temperature Precipitation Wind Pressure Humidity
00:00 +26°C° 0.3 mm 1 mps 744 mmHg 83%
01:00 +25°C° 0.3 mm 1 mps 744 mmHg 87%
02:00 +25°C° 0.2 mm 1 mps 743 mmHg 87%
03:00 +25°C° 0.2 mm 1 mps 743 mmHg 88%
04:00 +25°C° 0.2 mm 1 mps 743 mmHg 89%
05:00 +25°C° 0.5 mm 1 mps 743 mmHg 89%
06:00 +25°C° 0.5 mm 1 mps 744 mmHg 88%
07:00 +26°C° 0.5 mm 1 mps 744 mmHg 88%
08:00 +26°C° 0.6 mm 2 mps 744 mmHg 85%
09:00 +27°C° 0.6 mm 2 mps 744 mmHg 82%
10:00 +27°C° 0.6 mm 2 mps 744 mmHg 79%
11:00 +28°C° 0.2 mm 2 mps 744 mmHg 75%
12:00 +28°C° 0.2 mm 2 mps 744 mmHg 71%
13:00 +29°C° 0.2 mm 2 mps 744 mmHg 67%
14:00 +29°C° 0.5 mm 2 mps 743 mmHg 68%
15:00 +29°C° 0.5 mm 3 mps 743 mmHg 68%
16:00 +29°C° 0.5 mm 3 mps 743 mmHg 69%
17:00 +28°C° 0.1 mm 3 mps 743 mmHg 72%
18:00 +27°C° 0.1 mm 3 mps 743 mmHg 76%
19:00 +26°C° 0.1 mm 3 mps 743 mmHg 79%
20:00 +25°C° 0 mm 2 mps 743 mmHg 83%
21:00 +24°C° 0 mm 2 mps 743 mmHg 87%
22:00 +23°C° 0 mm 1 mps 744 mmHg 91%
23:00 +23°C° 0 mm 1 mps 743 mmHg 92%

8 July, Wednesday

Time Temperature Precipitation Wind Pressure Humidity
00:00 +22°C° 0 mm 1 mps 743 mmHg 92%
01:00 +22°C° 0 mm 1 mps 743 mmHg 93%
02:00 +20°C° 0 mm 0 mps 743 mmHg 93%
03:00 +20°C° 0 mm 0 mps 742 mmHg 93%
04:00 +20°C° 0 mm 0 mps 742 mmHg 92%
05:00 +21°C° 0 mm 0 mps 742 mmHg 91%
06:00 +23°C° 0 mm 1 mps 743 mmHg 90%
07:00 +23°C° 0 mm 1 mps 743 mmHg 88%
08:00 +25°C° 0 mm 1 mps 743 mmHg 83%
09:00 +26°C° 0 mm 1 mps 743 mmHg 77%
10:00 +27°C° 0 mm 1 mps 743 mmHg 72%
11:00 +28°C° 0.2 mm 1 mps 743 mmHg 69%
12:00 +29°C° 0.2 mm 1 mps 742 mmHg 66%
13:00 +30°C° 0.2 mm 1 mps 742 mmHg 63%
14:00 +30°C° 0.4 mm 1 mps 741 mmHg 63%
15:00 +31°C° 0.4 mm 1 mps 741 mmHg 62%
16:00 +29°C° 0.4 mm 0 mps 740 mmHg 62%
17:00 +30°C° 0.1 mm 1 mps 740 mmHg 65%
18:00 +29°C° 0.1 mm 1 mps 740 mmHg 69%
19:00 +28°C° 0.1 mm 1 mps 740 mmHg 73%
20:00 +27°C° 0 mm 1 mps 741 mmHg 76%
21:00 +26°C° 0 mm 1 mps 741 mmHg 80%
22:00 +25°C° 0 mm 1 mps 741 mmHg 83%
23:00 +25°C° 0 mm 1 mps 741 mmHg 86%

9 July, Thursday

Time Temperature Precipitation Wind Pressure Humidity
00:00 +25°C° 0 mm 2 mps 741 mmHg 88%
01:00 +24°C° 0 mm 2 mps 741 mmHg 90%
02:00 +24°C° 0 mm 2 mps 740 mmHg 91%
03:00 +24°C° 0 mm 2 mps 740 mmHg 93%
04:00 +24°C° 0 mm 2 mps 740 mmHg 94%
05:00 +24°C° 0 mm 2 mps 741 mmHg 93%
06:00 +24°C° 0 mm 3 mps 741 mmHg 91%
07:00 +25°C° 0 mm 3 mps 741 mmHg 90%
08:00 +26°C° 0.1 mm 3 mps 741 mmHg 86%
09:00 +27°C° 0.1 mm 3 mps 741 mmHg 82%
10:00 +28°C° 0.1 mm 4 mps 741 mmHg 77%
11:00 +29°C° 0.3 mm 4 mps 741 mmHg 71%
12:00 +32°C° 0.3 mm 4 mps 740 mmHg 65%
13:00 +33°C° 0.3 mm 4 mps 740 mmHg 59%
14:00 +33°C° 0.8 mm 4 mps 740 mmHg 62%
15:00 +33°C° 0.8 mm 4 mps 739 mmHg 66%
16:00 +32°C° 0.8 mm 5 mps 739 mmHg 69%
17:00 +30°C° 0.4 mm 4 mps 739 mmHg 73%
18:00 +29°C° 0.4 mm 4 mps 739 mmHg 76%
19:00 +28°C° 0.4 mm 4 mps 739 mmHg 80%
20:00 +28°C° 0 mm 4 mps 739 mmHg 83%
21:00 +27°C° 0 mm 3 mps 740 mmHg 86%
22:00 +26°C° 0 mm 3 mps 740 mmHg 89%
23:00 +26°C° 0 mm 3 mps 740 mmHg 91%
Show more